Wind_Speed
104 102 98 91 85 83 83 83 82 81 80 79 78 77 76 75 75 73 73 73 73 70 67 66 64 64 65 62 58 56 52 50 50 49 49 48 45 44 44 43 42 40 39 37 36 37 38 39 39 39 40 42 44 45 46 47 46 45 44 45 44 44 44 44 45 44 44 45 45 46 46 47 47 47 48 48 47 47 48 49 49 49 49 50 52 52
108 104 96 89 86 87 88 88 87 85 83 82 82 81 79 78 77 77 77 76 75 72 69 68 66 64 65 64 60 57 53 51 52 53 51 50 49 47 46 46 44 43 41 38 37 38 38 39 39 39 40 41 42 43 44 45 46 46 46 47 46 46 46 46 46 46 47 47 47 48 49 49 49 49 49 49 49 50 51 52 52 51 52 53 54 54
109 102 92 89 91 91 91 90 89 87 85 85 84 83 81 80 79 79 78 78 77 74 72 71 68 65 65 65 62 58 54 53 55 55 54 52 51 50 49 48 47 46 44 41 40 39 38 38 38 38 40 40 41 41 42 44 45 46 48 48 48 48 48 48 48 49 49 49 49 50 51 51 52 52 52 52 52 53 54 53 53 53 54 55 56 56
108 98 92 94 96 93 92 91 90 89 87 86 86 84 82 81 81 80 80 80 80 78 76 75 72 68 66 66 63 60 57 56 56 56 55 53 52 53 51 50 50 50 48 45 43 41 39 38 38 39 40 40 41 42 42 43 43 44 46 47 48 49 50 50 50 51 51 51 51 52 52 52 53 53 53 53 54 54 54 54 54 54 55 56 57 57
108 101 99 101 98 95 94 94 93 92 90 88 88 86 84 84 84 83 84 84 83 82 80 79 76 70 67 66 64 63 60 57 56 55 54 54 55 55 53 52 54 53 51 48 46 44 41 41 40 40 40 40 41 42 42 42 41 42 43 45 46 48 50 51 51 51 52 52 52 53 53 54 54 54 54 54 54 54 53 54 54 54 55 56 56 57
110 106 105 104 100 99 99 98 96 94 92 91 90 89 88 87 87 87 87 87 87 86 83 82 79 72 69 67 64 66 63 57 55 55 54 56 57 57 56 56 56 56 54 51 49 47 45 44 43 43 42 42 42 42 41 40 41 42 43 43 44 46 47 48 48 49 51 52 53 53 54 55 55 56 56 56 55 55 55 56 55 56 56 57 57 58
114 110 108 106 104 104 103 100 98 97 95 94 91 91 92 91 90 90 90 90 90 89 86 85 82 74 70 68 65 66 65 59 56 56 55 56 58 58 58 59 58 57 56 54 52 50 48 48 47 46 46 45 45 44 42 41 41 42 42 42 43 43 44 45 46 46 48 48 49 50 51 52 53 54 54 53 53 54 55 55 56 56 56 56 57 57
116 112 110 109 107 106 104 101 99 99 98 95 93 95 95 94 93 93 93 94 94 93 90 88 85 78 71 68 67 67 67 62 58 57 57 58 59 59 60 60 60 59 59 57 55 54 52 51 50 49 48 48 48 47 45 44 44 43 43 42 42 42 43 44 44 45 45 46 46 47 48 49 49 50 50 49 50 51 52 52 53 53 53 54 54 55
118 114 112 110 109 108 105 102 102 103 101 98 97 99 99 98 98 97 97 99 98 97 94 89 87 82 72 67 70 70 68 64 61 60 61 61 61 60 60 61 61 61 61 59 58 58 56 54 54 53 51 50 50 50 48 47 47 46 45 45 44 44 43 43 43 43 44 45 45 46 47 47 48 48 48 48 49 50 50 51 51 52 52 53 53 54
120 117 115 114 113 111 108 107 108 108 106 104 103 103 103 103 102 102 102 102 103 101 96 89 88 86 75 68 71 72 67 66 65 64 65 64 63 62 62 63 63 63 62 62 61 61 60 58 57 56 55 54 53 52 51 50 49 49 48 47 47 47 46 45 45 44 44 45 45 46 46 47 47 47 47 47 48 49 49 50 51 51 51 52 52 53
124 121 119 119 117 114 113 113 113 112 111 110 108 106 105 106 105 105 105 105 107 104 95 89 88 88 80 70 69 71 68 67 68 68 67 67 67 67 66 66 65 65 64 63 63 63 64 63 61 59 59 58 57 55 54 53 52 51 51 50 50 49 49 48 47 47 47 46 46 47 47 47 48 47 47 48 49 49 50 51 51 51 52 52 54 55
128 125 123 121 119 116 116 116 115 115 114 112 110 107 107 108 107 107 107 108 109 102 90 87 89 90 84 72 67 69 69 70 70 69 69 70 71 71 70 69 68 67 65 65 65 66 67 66 65 63 62 61 60 58 58 57 56 55 54 53 53 52 51 51 50 50 50 49 49 49 49 50 51 50 51 52 52 52 53 53 54 54 55 56 57 58
130 127 125 123 121 119 118 118 118 118 116 114 112 109 108 109 108 109 108 108 107 98 89 88 91 93 87 74 68 69 70 72 72 71 72 73 74 75 74 72 71 70 69 68 69 69 68 67 67 66 65 64 63 61 61 60 59 58 57 56 56 56 55 53 52 52 52 52 52 52 52 53 53 53 53 54 55 55 55 56 56 57 58 59 60 61
132 129 127 126 124 122 121 120 120 118 117 115 113 110 109 110 109 109 108 107 105 98 93 93 96 99 91 76 71 71 71 73 74 75 76 76 77 78 78 76 74 73 73 72 72 71 70 69 68 68 67 67 66 65 64 63 62 61 60 60 59 60 58 56 55 55 55 55 55 54 54 55 55 55 55 55 56 57 57 57 58 59 60 61 62 63
134 131 129 126 124 122 121 121 120 118 117 116 115 115 114 113 111 110 109 109 107 103 101 101 103 103 92 78 74 74 74 75 77 78 79 79 80 80 80 79 77 76 76 76 75 73 72 71 70 69 69 70 69 68 66 65 65 64 63 62 62 62 61 59 58 58 58 58 57 57 57 57 57 57 57 57 58 58 58 58 59 60 62 63 64 65
137 134 130 127 125 125 124 124 123 122 122 121 120 121 119 116 114 113 113 113 112 111 109 107 107 103 91 81 80 79 78 78 78 79 80 80 81 82 82 82 81 80 79 78 78 77 75 74 72 72 72 72 71 70 69 68 67 67 66 65 64 65 63 61 60 60 60 60 59 59 59 60 59 59 59 60 60 60 60 60 61 62 64 65 66 66
139 136 133 130 129 128 128 128 127 127 126 125 124 123 120 118 117 118 116 115 115 115 112 108 106 102 94 87 84 82 81 80 79 80 80 80 82 84 85 85 85 84 82 81 80 80 79 77 75 74 74 74 73 72 72 71 70 69 69 68 67 67 66 64 63 62 62 62 61 61 61 61 61 61 61 62 62 62 62 62 63 65 66 66 67 68
140 138 136 134 132 131 131 132 132 131 130 129 127 125 123 123 124 123 120 119 120 119 114 110 107 104 99 91 86 85 84 82 82 82 81 81 82 84 86 88 88 88 86 84 83 83 82 80 78 77 77 76 76 76 75 73 72 72 71 71 70 69 69 67 65 64 64 64 63 64 63 63 63 63 63 63 64 64 64 64 66 66 67 68 69 69
142 141 139 138 136 135 135 136 136 134 133 131 129 127 127 129 128 126 123 122 122 121 117 112 109 107 103 94 87 88 88 86 87 87 84 84 84 86 88 90 92 92 90 88 87 86 85 83 82 80 79 79 79 78 77 76 75 74 74 73 72 72 71 70 68 67 66 66 65 65 65 65 64 64 65 65 65 65 65 66 67 68 69 69 70 70
144 143 142 141 140 139 139 139 138 136 134 133 132 131 131 132 130 128 126 125 124 124 120 117 114 111 104 96 90 91 92 92 92 90 89 88 87 88 90 92 94 95 95 93 91 90 88 87 85 83 83 82 82 81 80 79 78 77 76 76 75 75 74 72 71 69 68 67 67 66 66 66 66 66 66 66 66 66 67 68 69 69 70 70 71 72
146 145 143 142 141 142 141 140 138 137 136 136 135 134 134 133 132 130 129 128 128 127 124 120 117 111 104 98 96 96 96 96 96 94 93 92 91 90 90 92 95 97 98 98 96 94 92 90 89 88 87 86 85 84 83 82 81 80 78 77 77 77 76 74 73 71 70 69 68 68 68 68 68 67 67 67 68 68 69 70 70 71 71 71 72 73
147 146 145 143 142 142 142 140 139 139 139 139 138 137 136 135 135 134 133 132 131 130 128 125 121 112 105 104 103 101 100 100 100 98 97 96 96 94 92 92 95 98 100 100 100 98 96 94 92 91 91 90 89 88 87 85 84 83 81 80 79 78 78 77 75 74 73 72 71 70 70 70 69 69 69 69 69 69 70 71 72 72 72 73 74 74
146 146 145 144 143 143 143 142 141 141 143 143 142 141 139 138 138 137 136 134 134 133 132 130 127 117 109 109 108 106 105 104 103 102 101 100 99 98 96 94 95 98 101 103 102 101 100 99 97 95 94 94 93 92 91 89 88 86 85 84 82 81 80 79 77 76 75 74 73 73 72 72 71 71 70 70 71 71 72 73 73 73 73 74 75 75
147 147 145 145 144 144 144 143 143 143 144 144 144 144 142 141 140 139 138 137 137 137 135 135 133 121 112 112 113 110 110 108 106 105 105 104 103 102 100 98 97 98 101 104 105 104 104 103 102 101 99 98 97 96 94 93 91 90 89 88 86 85 83 81 79 78 76 76 75 74 74 73 73 72 72 72 73 73 74 74 74 74 75 75 76 76
148 148 147 146 145 145 146 146 146 146 146 145 145 144 143 143 143 141 141 141 141 140 139 138 136 126 118 117 117 115 113 112 110 109 108 107 107 106 104 103 101 100 101 104 106 106 106 106 105 105 103 102 101 99 97 96 95 94 92 91 90 88 86 84 82 80 79 78 77 76 76 75 75 74 74 75 75 75 75 75 75 76 76 76 77 77
147 148 148 147 145 145 146 146 146 147 147 146 145 143 143 144 144 144 145 145 145 144 142 141 139 132 125 122 120 117 116 115 114 113 111 110 110 109 108 107 105 104 104 104 106 108 108 107 107 107 106 105 104 102 101 99 98 96 95 94 92 91 89 87 85 83 82 80 80 79 78 78 77 77 76 76 76 76 77 77 77 77 77 77 78 78
147 149 149 148 147 146 143 143 144 145 145 145 145 144 144 144 144 146 147 147 146 146 145 143 141 137 131 126 122 120 119 119 118 117 115 113 112 111 110 110 109 109 108 107 108 109 110 110 109 108 108 108 108 107 105 103 101 100 98 96 94 92 91 89 87 85 84 83 82 82 81 80 79 78 78 78 78 78 78 78 78 79 79 79 79 80
146 147 147 147 147 145 143 142 144 146 146 146 146 145 145 146 146 148 148 147 147 147 147 146 145 142 136 130 127 125 123 122 121 120 118 117 115 114 113 112 112 112 112 111 110 110 112 113 113 112 112 111 110 109 108 107 105 104 102 100 97 95 93 91 89 87 86 85 84 84 84 83 82 81 80 80 80 80 80 80 80 80 80 80 81 81
145 145 144 144 144 143 142 141 143 145 146 146 146 145 145 146 148 150 150 149 149 148 148 147 146 144 139 134 132 131 128 124 123 122 121 119 118 117 116 115 115 115 115 115 114 113 114 117 118 117 116 115 113 111 110 110 109 107 105 103 100 99 97 95 93 91 89 88 87 87 87 86 84 84 84 83 83 83 83 83 83 83 83 83 83 83
144 143 143 143 143 142 141 142 143 144 145 146 146 146 145 146 147 149 149 149 149 149 148 147 145 143 139 135 134 135 132 129 126 124 124 122 121 120 120 119 117 118 119 119 118 117 117 119 121 121 120 118 116 114 113 112 111 110 108 106 104 102 100 98 96 94 92 90 90 90 89 88 87 87 86 86 86 86 86 86 86 86 86 86 86 86
141 142 141 142 143 142 141 141 142 143 145 146 146 146 146 146 146 147 148 147 147 147 146 145 143 141 138 135 134 135 134 133 130 128 127 126 125 124 123 121 121 121 122 123 123 121 120 121 123 123 122 120 119 117 115 114 113 112 111 109 107 105 103 101 98 96 95 93 93 92 91 91 91 90 89 89 89 89 89 89 88 88 88 88 88 87
140 140 140 141 143 142 140 140 141 142 144 145 145 145 145 145 145 146 146 145 145 144 143 143 141 139 136 134 134 133 133 133 132 130 129 128 128 127 125 123 123 123 124 125 126 126 124 123 124 125 124 123 121 120 118 117 116 115 113 111 109 108 106 104 102 100 98 97 96 95 95 95 94 93 92 92 91 91 91 90 90 90 90 90 89 89
138 139 139 141 142 141 140 139 140 142 144 146 145 144 143 143 143 143 143 142 141 141 141 141 140 138 135 135 134 133 132 132 133 132 131 129 128 128 127 125 124 124 125 127 128 129 127 126 125 126 126 126 125 123 122 121 119 117 115 113 111 109 108 106 105 103 102 101 100 99 98 97 96 95 94 94 93 93 92 91 91 91 91 91 90 90
135 137 138 139 141 141 139 139 142 145 146 146 143 141 140 140 141 141 140 139 139 140 140 140 140 138 136 134 133 131 130 132 133 133 133 131 128 127 126 126 126 126 127 128 129 129 129 128 127 127 128 128 128 127 126 124 122 120 118 116 113 110 108 107 106 105 104 104 103 102 101 99 98 97 96 95 95 94 94 93 93 93 92 92 91 91
131 133 135 137 139 140 139 140 144 146 147 145 141 137 137 139 140 141 141 140 139 139 139 139 138 136 134 132 130 129 128 130 132 132 132 132 130 128 127 126 127 128 129 130 130 129 129 130 129 129 129 129 130 130 128 126 124 122 120 118 115 111 109 108 106 105 104 104 103 102 101 100 99 98 98 97 97 96 96 95 95 94 94 94 93 93
128 130 133 135 137 138 139 141 143 145 144 142 138 137 138 139 140 141 141 139 137 137 136 135 134 133 133 131 129 129 129 130 131 131 130 130 130 129 127 126 127 129 130 131 131 131 131 131 131 130 129 130 131 131 129 127 125 124 122 119 116 113 111 110 108 106 105 105 104 103 102 102 101 101 100 100 99 99 98 98 98 97 97 96 95 95
126 128 130 132 134 136 138 139 141 143 142 139 137 137 137 138 139 140 140 138 135 135 135 135 134 133 133 131 128 127 129 130 130 128 127 128 128 128 128 128 129 130 130 131 131 132 132 132 131 130 130 130 130 130 130 129 128 126 123 120 118 116 114 112 110 108 107 106 106 105 104 103 103 103 103 102 102 101 101 101 100 99 98 97 96 96
124 126 128 130 133 134 136 137 139 141 140 137 136 136 136 137 138 139 140 139 136 134 134 135 134 133 131 129 127 127 129 131 129 126 126 127 129 130 131 131 131 131 130 129 129 130 131 131 131 130 130 129 129 130 130 131 130 129 126 123 121 118 116 114 112 111 111 110 109 107 105 105 105 105 105 104 103 103 102 101 100 99 98 98 97 96
120 123 126 128 131 132 133 135 136 137 136 134 133 134 135 135 136 138 140 139 135 132 133 134 133 132 131 130 129 129 130 130 127 125 125 127 129 131 131 131 131 131 129 127 127 128 130 130 130 129 129 129 129 130 131 131 130 129 128 126 124 121 118 116 115 115 114 113 112 110 108 108 108 107 106 105 104 103 102 101 100 99 98 98 97 96
115 119 122 125 127 129 130 132 133 133 131 130 129 131 133 133 134 136 138 137 132 129 130 132 132 131 131 131 131 130 130 128 125 124 125 128 129 131 131 130 129 129 128 127 127 128 129 129 129 128 128 128 128 129 131 131 129 128 127 127 125 122 120 118 117 117 116 115 114 112 111 110 109 108 107 106 104 103 102 101 100 100 99 99 98 97
110 113 116 119 122 125 127 128 129 128 127 126 127 128 130 131 132 134 134 134 131 127 128 130 131 131 131 131 131 129 128 127 125 125 126 128 128 129 129 128 127 127 127 126 127 128 129 128 128 127 126 126 126 128 129 130 128 127 126 125 124 122 121 120 120 119 117 116 114 113 112 111 110 109 108 106 104 103 102 102 101 101 100 100 99 98
106 108 110 112 115 118 121 124 125 123 122 122 123 125 127 128 128 130 131 131 129 127 127 128 129 129 129 129 129 127 126 126 126 126 127 127 128 129 129 127 125 125 125 125 125 127 128 128 127 126 125 125 125 126 126 127 126 125 125 124 123 122 122 122 121 119 116 114 113 112 111 110 109 108 107 106 104 102 102 102 102 102 101 100 99 98
105 106 107 108 109 112 115 118 118 116 115 117 120 123 124 124 123 125 127 127 126 127 127 127 128 127 126 126 126 126 125 125 125 126 127 127 127 127 127 125 123 122 122 122 123 124 125 125 125 125 124 123 124 124 125 125 124 123 123 123 122 123 123 122 120 118 116 114 112 110 109 108 107 107 106 106 105 104 103 103 103 102 101 100 99 99
106 106 106 105 106 108 110 110 109 108 109 114 118 119 120 120 119 121 122 123 124 125 125 125 126 125 124 124 125 125 125 125 125 126 126 125 124 124 123 122 121 120 120 120 119 121 123 123 122 123 123 122 122 122 123 123 122 120 119 119 120 121 121 120 118 117 115 114 112 111 110 110 109 109 109 108 107 105 103 103 103 103 102 102 101 101
106 106 106 106 107 109 108 106 104 104 104 107 110 112 114 115 116 117 118 119 121 122 123 123 124 125 125 126 126 126 126 125 125 125 124 123 121 120 120 119 119 119 119 119 118 118 119 119 119 119 120 121 121 120 121 122 121 119 117 117 118 119 118 116 115 114 114 114 113 112 112 111 111 110 110 110 108 106 105 105 105 105 104 103 101 99
108 108 109 109 110 110 109 105 102 101 100 101 103 106 108 110 112 114 115 116 118 120 122 123 123 124 125 126 126 126 126 126 125 123 122 121 119 118 117 117 117 117 118 118 118 118 118 118 117 116 116 117 118 118 118 119 121 120 118 117 117 116 115 113 112 112 113 113 113 113 113 113 112 111 111 111 110 107 106 105 104 103 100 99 97 95
112 112 111 111 111 111 108 103 101 100 100 102 103 104 105 106 108 109 111 113 115 118 120 121 122 123 124 125 126 125 125 125 124 122 121 120 118 117 116 116 115 115 116 116 116 117 118 118 117 117 116 117 118 119 119 119 120 120 119 119 118 116 114 112 111 110 110 111 112 112 111 110 110 110 109 108 107 104 102 100 99 97 95 94 93 92
115 115 114 112 112 111 107 103 102 103 103 105 105 104 104 104 106 108 110 111 112 114 117 119 120 121 122 124 125 124 124 123 122 121 121 120 119 117 116 116 115 115 114 114 114 115 116 116 116 117 117 117 118 119 120 121 121 120 119 118 118 117 114 112 111 110 109 109 109 108 108 107 106 105 104 102 100 98 96 95 93 91 89 88 87 87
115 116 115 114 113 112 108 105 104 106 106 106 107 107 107 108 109 111 112 112 112 112 113 115 116 118 119 120 122 123 122 122 122 121 121 120 119 118 116 115 115 114 113 113 113 113 114 114 114 114 114 115 116 118 119 120 120 119 118 117 117 116 113 111 110 109 108 108 107 104 104 103 101 99 97 96 95 91 88 86 85 83 81 80 79 78
108 110 111 113 113 112 109 107 108 111 111 110 111 113 113 113 113 112 112 113 113 112 112 113 114 114 115 116 117 119 120 120 120 120 120 119 119 118 117 116 115 114 113 113 112 113 113 113 113 112 112 112 114 115 117 118 118 117 117 116 115 113 111 109 108 106 103 102 101 99 97 95 95 94 90 86 84 81 79 79 78 76 74 73 71 69
99 100 103 107 108 107 106 108 112 115 114 113 114 117 117 116 116 115 115 115 115 115 114 114 114 114 115 115 115 116 117 117 117 118 119 119 118 118 118 117 117 115 114 113 112 112 113 114 115 115 114 113 113 113 114 115 115 114 113 111 111 110 106 103 102 101 98 94 91 91 90 88 86 86 82 77 75 77 77 76 73 71 69 69 67 65
Wind_Direction
236 235 234 234 235 238 241 242 242 241 241 240 240 239 239 240 241 241 240 240 239 237 236 236 235 239 242 241 240 241 240 242 245 247 250 251 252 253 253 254 254 255 257 258 258 257 257 258 259 259 259 258 257 257 258 259 260 260 261 261 262 264 264 265 267 269 270 271 272 273 274 276 277 278 279 281 282 283 283 283 285 287 289 289 289 289
236 235 234 235 237 238 239 240 240 240 240 239 239 238 238 239 240 241 241 240 240 238 237 237 236 237 241 241 239 239 239 241 244 245 247 249 251 252 253 255 256 257 257 257 257 257 259 260 261 262 261 260 260 259 259 259 259 260 260 261 262 264 265 266 267 268 268 269 271 272 273 274 275 276 277 279 280 281 282 285 287 288 288 288 289 289
237 236 235 237 238 238 239 239 240 240 240 240 239 239 239 239 240 242 243 243 242 240 238 238 237 236 239 241 240 239 238 239 242 245 246 247 250 252 254 256 257 258 257 256 257 259 261 262 263 263 262 262 262 261 260 258 258 259 260 262 263 264 265 266 267 267 267 269 270 271 272 274 275 276 276 277 279 281 284 286 287 287 287 288 289 290
238 237 237 238 239 238 239 240 240 241 241 241 241 241 240 240 241 242 244 244 243 241 239 239 238 236 238 241 241 240 238 238 241 244 247 248 250 252 254 256 257 257 258 258 258 259 260 261 262 262 262 263 263 262 261 261 261 262 263 264 264 264 265 266 266 267 268 269 270 271 272 274 275 276 278 279 280 282 284 285 285 286 287 288 289 290
237 237 237 238 238 238 238 239 239 240 240 240 241 241 241 241 241 242 243 243 244 243 240 239 238 237 238 240 242 242 240 239 241 244 248 250 250 251 253 255 256 257 258 258 259 259 259 260 260 261 262 263 263 263 264 265 266 266 265 265 265 265 265 265 266 268 269 270 271 271 273 273 275 276 277 278 280 281 283 283 284 285 286 287 287 288
236 236 237 237 237 236 236 237 238 238 239 239 240 241 241 240 240 241 242 243 244 244 242 241 239 237 239 240 242 244 242 241 242 244 247 250 251 252 252 253 255 257 258 259 259 260 259 258 258 259 261 262 263 265 266 267 267 266 265 264 265 265 266 267 268 269 269 270 271 272 274 274 275 276 276 278 279 280 281 281 282 282 283 285 285 286
236 236 237 237 237 237 236 236 237 238 238 238 239 241 241 240 240 240 241 242 243 244 243 242 240 237 238 241 241 245 245 242 243 245 247 250 252 253 253 254 255 256 258 259 259 259 259 258 259 259 261 262 263 264 265 265 265 265 265 266 266 267 268 268 269 269 270 271 272 273 274 275 276 277 277 279 280 280 280 281 282 283 284 285 286 287
237 236 237 237 237 237 237 237 238 239 238 238 239 240 241 241 241 240 240 241 241 242 242 243 242 238 237 241 243 245 247 245 245 247 248 250 252 253 255 256 256 257 258 259 259 259 259 259 259 259 260 261 262 263 263 263 264 266 267 267 267 267 267 268 269 270 271 272 273 274 275 276 277 278 280 281 281 281 282 283 284 285 286 287 288 289
237 237 237 238 238 238 238 238 239 239 239 238 238 239 240 240 240 240 240 240 240 241 241 242 243 240 236 240 244 245 247 248 247 248 250 251 252 254 256 257 257 258 259 260 260 260 259 259 259 259 259 259 260 261 263 263 264 265 266 267 268 268 268 269 270 271 272 273 274 276 276 277 278 279 281 282 282 282 283 285 286 287 288 288 289 289
237 237 237 237 237 237 237 237 237 238 238 237 236 237 238 239 239 240 240 240 240 240 240 241 243 243 237 237 244 245 247 249 249 249 251 252 254 255 256 257 257 257 258 259 260 261 260 259 259 259 259 258 259 260 262 262 263 264 266 267 268 268 269 270 270 271 272 274 275 276 277 278 280 281 282 282 282 283 285 286 286 287 288 288 289 289
236 235 235 236 236 236 237 237 237 237 237 236 236 236 237 238 239 240 240 241 241 240 240 241 244 245 241 237 243 247 248 250 251 252 253 254 255 255 255 256 257 257 257 258 260 261 261 260 259 259 258 258 259 259 260 261 262 264 265 266 267 268 269 270 271 272 273 274 274 275 277 279 280 281 282 282 282 283 285 285 286 287 287 288 289 291
235 235 235 236 236 236 237 238 238 239 239 238 238 237 237 238 239 240 240 241 243 242 242 244 246 247 244 241 243 248 250 252 253 254 254 255 255 255 254 255 256 257 257 257 257 258 260 261 261 260 259 259 259 260 260 261 262 263 264 265 266 267 268 270 272 273 273 274 275 276 278 279 280 281 282 282 283 285 286 287 288 289 290 291 293 294
234 234 235 235 236 236 236 237 238 239 239 240 239 239 238 239 240 240 241 242 244 245 244 245 246 247 245 242 244 247 250 254 255 255 255 255 256 256 256 255 256 257 257 257 257 257 258 260 261 262 262 261 261 260 261 261 262 263 263 264 265 266 268 269 271 272 273 274 275 277 279 279 280 282 283 284 286 287 289 290 291 292 293 294 295 296
236 235 235 236 236 236 237 238 239 240 241 241 242 242 241 241 242 242 243 244 245 245 245 244 245 245 243 240 243 246 248 252 255 255 255 255 256 257 257 256 256 257 257 257 257 257 257 258 259 261 263 263 262 262 262 262 262 263 264 264 265 267 268 269 270 271 272 273 275 277 278 279 280 281 283 284 286 288 289 290 292 292 293 294 295 296
237 236 237 237 237 238 238 239 240 241 242 242 242 242 241 241 241 242 243 244 244 244 243 243 243 244 242 240 241 244 245 247 250 253 254 255 256 257 258 258 257 257 257 257 258 258 258 258 258 259 260 262 263 263 263 263 264 264 264 265 265 266 268 268 269 270 271 273 275 277 277 278 279 281 282 284 285 287 288 289 290 290 291 293 294 294
236 236 236 237 238 238 239 239 240 240 240 241 241 242 242 241 241 241 241 242 242 242 241 241 242 244 243 240 241 242 243 245 248 252 255 256 258 258 259 259 258 258 257 257 258 259 259 259 259 259 259 260 261 263 264 264 264 265 265 266 266 266 267 268 268 269 270 273 274 275 275 277 279 281 282 283 284 286 287 288 288 288 289 291 292 293
237 237 237 237 237 238 239 239 240 240 240 240 241 242 243 243 242 242 242 242 243 243 242 242 243 245 244 242 242 243 245 246 248 251 254 256 257 259 259 259 259 258 258 258 258 259 259 259 259 259 259 259 260 261 262 263 264 265 265 266 266 267 267 267 268 269 270 272 272 273 274 276 278 280 281 282 283 285 286 286 286 287 288 290 290 291
237 237 237 237 237 237 238 239 240 240 240 240 241 241 242 242 242 242 242 242 242 243 243 242 243 244 243 242 242 244 245 246 247 248 250 252 254 257 259 259 259 259 258 258 258 258 259 259 259 259 259 259 260 260 261 262 263 264 265 265 266 266 267 268 268 269 270 271 271 273 274 276 277 278 279 280 282 283 284 284 284 286 287 288 289 290
237 236 236 236 236 236 237 238 239 239 240 241 241 241 242 242 243 243 242 242 243 244 243 243 243 243 243 241 241 243 245 245 245 246 247 249 251 254 256 258 259 259 259 258 258 258 258 258 258 259 259 260 260 260 261 261 262 263 264 264 265 265 266 267 267 268 269 270 271 273 274 275 276 277 278 279 280 281 282 282 283 285 286 287 288 289
237 237 236 236 236 236 236 237 238 240 240 241 241 241 242 242 243 244 244 244 244 244 244 243 243 243 243 242 241 242 244 245 245 246 246 247 249 251 254 257 259 260 260 259 258 258 258 258 259 259 259 259 259 260 261 261 261 261 262 263 264 265 265 266 267 267 268 269 271 272 273 274 275 276 277 278 279 280 281 281 283 284 285 287 288 288
236 237 237 237 237 237 237 237 238 239 240 241 242 242 242 243 244 245 245 245 245 245 245 244 244 243 244 244 243 242 243 245 246 246 246 247 247 248 250 253 257 259 260 260 259 258 258 257 258 258 258 258 259 259 260 260 261 261 262 262 263 264 264 265 266 267 268 270 271 272 272 273 274 275 276 277 279 280 280 281 283 284 285 286 287 288
237 237 238 238 238 238 238 238 238 238 239 240 241 241 242 243 243 244 245 246 246 247 247 246 245 243 243 243 243 242 243 243 245 246 246 246 247 247 247 249 253 256 259 260 260 260 259 258 257 257 258 258 259 259 259 260 261 261 262 262 262 263 264 265 266 267 269 270 271 271 272 273 274 275 276 278 279 280 280 281 283 284 285 286 287 288
236 237 237 237 237 238 238 238 238 238 239 239 240 241 242 242 243 243 244 245 246 246 247 247 245 242 241 242 243 242 243 243 243 245 246 246 246 247 247 247 249 252 256 259 260 261 261 260 259 259 258 258 259 259 260 260 261 261 262 262 263 263 264 265 266 267 269 269 270 270 271 273 274 275 276 277 278 279 280 281 282 284 285 286 287 289
235 236 236 237 237 237 238 238 238 238 238 239 240 240 241 242 243 244 245 245 246 246 247 247 247 244 242 242 243 243 243 243 243 244 245 246 247 247 248 248 248 250 253 257 259 261 262 262 262 262 260 260 259 259 260 260 261 262 262 263 263 264 265 266 266 267 268 269 270 270 271 272 274 275 276 277 277 278 279 281 282 283 285 286 287 289
234 235 236 237 237 237 238 238 238 239 239 240 240 241 241 242 243 244 245 246 246 246 247 248 248 246 243 243 243 243 244 244 244 244 244 245 247 248 248 249 249 249 250 254 257 259 260 261 262 262 262 262 261 260 260 260 260 261 262 263 264 265 266 267 268 268 269 269 270 271 272 273 274 274 275 276 277 278 279 280 282 283 284 286 288 289
233 234 235 236 237 237 238 239 239 240 241 241 241 242 242 242 243 243 244 245 246 246 247 247 248 247 245 244 243 244 245 245 245 245 244 245 246 247 248 249 250 250 250 251 254 256 257 258 259 261 262 262 263 263 262 262 261 261 262 263 264 265 267 268 269 269 270 271 271 272 272 272 273 273 274 275 276 277 278 280 281 283 284 286 287 288
232 233 234 235 236 237 238 239 240 240 240 241 241 241 241 242 243 243 243 244 245 246 247 248 248 248 247 246 245 244 245 245 246 246 246 246 246 247 248 249 250 250 250 250 252 254 256 257 258 259 260 261 262 263 263 264 264 263 263 263 263 264 266 267 269 270 271 271 272 273 273 273 273 274 274 275 276 277 279 280 281 282 284 285 286 288
233 234 235 235 236 237 238 239 240 240 240 240 241 241 241 241 242 243 243 243 244 245 247 248 248 248 248 247 247 245 245 245 246 246 247 247 247 247 248 248 249 250 251 251 251 252 254 256 257 258 258 259 260 262 263 264 265 265 265 265 265 265 265 266 267 268 269 271 272 273 273 274 275 275 275 276 277 278 279 280 281 282 283 284 286 287
233 234 235 236 237 237 237 238 239 241 241 241 241 242 242 243 243 244 244 244 245 245 246 247 248 248 248 248 248 247 246 245 246 247 247 247 247 247 247 247 248 249 250 251 251 252 253 255 256 257 258 259 260 261 262 263 264 264 265 266 267 267 267 267 267 267 268 269 270 271 272 273 274 274 275 276 276 277 278 279 280 281 283 284 286 287
234 234 235 236 236 236 237 237 238 240 241 242 242 242 242 243 244 245 245 245 246 247 247 248 248 250 250 250 249 249 248 247 246 246 247 248 247 247 247 247 247 248 249 250 250 251 252 254 256 257 257 258 259 260 261 262 263 264 265 266 267 268 268 269 269 269 269 270 270 270 271 272 272 273 274 275 275 276 277 279 280 281 282 284 285 287
234 234 234 235 236 236 236 237 238 239 241 242 242 243 243 243 243 244 245 246 246 247 248 249 249 250 251 251 250 250 250 249 248 247 247 247 248 247 247 247 247 247 248 249 250 251 252 253 255 256 257 258 259 259 260 261 262 263 264 265 266 267 267 268 269 269 270 270 271 271 271 272 272 273 274 275 276 277 278 279 280 281 283 284 285 287
233 234 234 235 236 236 236 237 238 239 240 241 242 242 243 243 244 244 245 247 247 248 249 249 250 250 250 250 250 250 250 250 250 249 247 247 248 248 248 248 248 248 249 250 251 252 252 252 254 256 257 258 258 259 260 260 261 262 263 264 265 266 266 267 268 268 269 270 270 271 272 273 274 275 276 276 277 278 279 280 281 282 283 284 286 287
233 233 234 234 235 235 236 236 237 238 239 239 240 241 242 244 245 246 247 247 248 249 249 250 250 250 249 249 250 250 250 250 250 250 249 248 247 247 248 248 249 249 249 250 251 251 252 252 253 255 256 257 257 258 259 259 260 261 262 263 263 264 266 267 268 269 269 270 271 272 272 273 274 275 276 276 277 278 279 280 281 282 283 284 285 286
233 234 234 235 235 235 235 235 237 237 238 238 239 241 242 244 245 246 247 247 248 248 249 249 249 249 249 249 250 251 251 251 250 250 250 249 248 247 248 248 248 249 249 250 250 251 252 252 252 253 254 255 256 257 258 259 260 261 262 263 263 264 265 266 268 269 270 271 271 272 273 274 274 274 275 276 276 277 278 279 280 281 282 283 284 284
233 234 235 236 236 236 236 236 236 237 238 239 239 240 242 243 244 245 246 246 247 247 248 249 250 250 250 250 251 251 251 251 251 251 251 251 251 249 248 247 248 248 248 249 250 250 251 251 251 252 253 255 256 257 258 258 259 260 261 262 263 264 265 266 267 267 268 269 270 271 272 272 272 272 273 273 274 275 276 276 277 279 280 281 282 282
233 234 235 235 236 237 237 236 237 238 239 240 240 240 241 242 243 245 245 246 247 248 249 250 250 250 251 250 250 251 251 251 251 252 252 252 252 252 250 249 248 248 248 248 249 249 249 250 251 252 252 254 255 257 258 259 259 259 260 261 262 263 264 265 266 266 267 267 268 268 269 269 270 270 271 271 272 273 274 275 276 277 278 279 280 281
233 233 234 235 236 237 237 237 238 239 239 240 240 240 241 242 243 244 245 246 246 247 248 249 249 250 251 251 251 251 252 252 252 252 253 253 253 253 253 251 250 248 248 248 248 249 249 250 251 252 252 253 254 256 257 258 259 259 259 260 261 262 263 264 265 265 266 266 266 267 267 268 268 269 270 270 271 272 273 274 275 276 277 278 280 280
233 234 234 235 236 237 237 237 238 239 239 239 240 241 241 242 243 244 245 245 245 246 247 248 249 249 250 251 251 251 252 252 252 252 253 253 254 253 253 252 252 250 249 249 249 250 251 251 251 251 252 252 253 254 255 257 258 259 259 260 260 261 262 263 264 264 265 265 266 266 266 267 267 268 269 270 271 272 272 273 274 275 276 277 279 279
235 235 235 236 237 237 238 238 239 239 240 240 240 241 242 242 243 244 245 245 245 246 247 247 248 248 249 249 249 250 250 251 252 252 253 253 253 253 253 253 253 253 252 252 251 250 251 251 251 251 252 252 253 254 255 256 257 258 260 260 260 261 261 262 263 263 264 264 265 265 266 266 267 268 269 270 271 271 272 272 273 274 275 277 278 278
236 236 236 237 238 238 239 239 240 240 241 241 241 241 242 242 243 244 245 246 246 246 247 248 248 248 248 248 249 249 250 251 252 252 253 253 253 254 254 254 254 255 255 255 254 253 252 251 251 251 251 252 252 253 254 255 256 257 258 260 261 261 261 262 262 262 263 263 264 265 265 265 266 267 268 269 270 270 271 272 272 274 275 276 277 278
237 238 238 238 239 239 240 240 241 241 241 242 242 242 242 243 243 244 245 246 246 245 246 247 248 248 248 249 249 249 250 251 251 251 252 253 253 254 255 255 256 256 256 256 256 256 256 255 253 252 252 252 252 252 253 254 254 255 256 258 259 260 261 261 261 262 263 263 264 265 265 265 266 267 267 268 268 269 270 271 272 273 274 276 277 278
238 239 239 240 240 241 241 242 242 242 242 242 243 243 243 243 244 245 246 246 246 246 246 246 248 248 249 249 249 249 249 249 250 250 250 252 253 254 255 255 256 256 257 257 257 258 258 258 257 256 255 254 253 253 253 253 254 254 255 256 257 258 259 260 261 262 263 264 265 265 265 266 266 266 267 267 268 269 270 271 272 273 274 276 277 277
239 239 240 240 241 242 242 243 243 243 243 243 244 244 244 244 244 245 246 246 247 247 247 247 247 248 249 249 250 250 249 249 249 249 250 250 251 252 254 254 255 256 256 257 257 258 258 259 259 259 259 258 257 255 254 253 253 253 254 255 256 257 258 259 260 261 263 264 264 265 265 265 266 266 267 267 268 269 270 271 272 273 274 275 275 276
239 240 241 241 242 243 243 243 244 244 243 243 244 244 245 245 244 245 246 247 247 248 247 247 247 248 248 249 249 249 249 249 249 249 249 249 250 251 252 254 254 255 255 256 257 258 259 259 260 260 261 261 261 260 259 257 255 254 254 254 255 256 257 258 259 260 262 263 263 264 265 265 266 266 267 268 269 269 270 271 271 273 274 274 275 276
238 240 241 241 242 242 243 243 243 243 243 244 245 246 246 246 246 246 246 246 247 248 248 247 247 247 248 248 248 248 249 249 249 249 249 249 250 251 252 253 254 254 255 255 255 256 257 258 259 260 261 261 261 262 262 261 260 258 256 255 255 255 256 257 258 259 260 261 262 263 263 264 265 266 267 268 269 269 270 270 271 273 274 275 276 276
237 238 239 240 241 242 243 243 243 244 245 245 245 246 246 246 246 246 245 245 246 247 248 248 247 247 248 248 248 248 248 248 248 249 249 249 250 250 251 251 253 254 254 255 255 255 255 256 257 257 258 259 260 261 261 262 262 262 261 260 259 257 257 257 258 258 259 260 261 262 263 264 264 265 267 268 269 270 271 272 273 274 274 275 275 275
237 238 238 240 241 242 243 244 244 245 245 245 245 245 245 246 246 246 246 245 245 246 246 247 247 247 248 248 248 248 249 249 249 249 249 250 249 249 250 250 251 252 253 254 254 255 255 255 255 255 256 257 258 259 260 260 262 263 264 264 264 263 262 261 261 261 261 262 262 263 264 265 266 267 268 269 271 272 272 273 273 274 274 274 274 274
239 239 239 239 241 242 243 243 244 244 245 245 246 245 245 246 246 247 246 245 245 245 245 246 246 246 247 247 248 248 249 249 249 249 249 249 249 249 249 249 249 250 251 252 253 253 254 254 254 255 255 256 256 258 259 260 261 262 263 264 265 265 265 265 265 265 265 265 266 266 267 268 269 270 271 272 272 273 273 273 272 272 272 272 272 273
241 241 241 241 241 242 242 243 243 244 245 246 247 247 246 245 245 245 246 246 245 245 245 246 246 247 247 247 248 248 249 248 249 249 249 249 249 249 249 249 249 249 249 250 251 251 252 253 253 254 254 255 256 257 258 259 260 261 262 263 264 265 266 266 267 267 267 267 268 268 270 271 271 272 273 274 274 273 272 272 272 272 272 272 273 272
243 243 243 243 243 242 243 243 243 243 243 244 245 246 246 246 245 245 246 247 247 247 246 246 247 247 247 248 248 248 248 248 248 248 248 248 248 248 248 248 248 248 248 249 249 250 250 251 251 251 252 253 254 256 258 259 260 261 262 263 264 264 265 266 267 267 268 269 270 270 270 271 273 273 273 273 273 272 272 273 274 275 275 275 274 272
244 244 244 244 243 243 243 243 243 243 243 243 244 245 246 247 247 247 247 247 248 248 248 247 247 247 247 247 247 248 248 248 248 248 248 248 248 248 248 248 248 248 248 248 248 249 249 249 249 249 250 251 253 255 257 260 261 262 263 264 265 266 266 266 268 269 269 269 270 271 271 271 272 272 271 269 268 270 272 274 275 275 275 274 271 268
Height
10698 10705 10715 10733 10750 10755 10756 10758 10760 10765 10769 10773 10775 10778 10783 10785 10787 10790 10790 10791 10794 10801 10808 10811 10815 10816 10816 10823 10831 10836 10842 10846 10847 10847 10847 10848 10850 10851 10851 10851 10853 10854 10856 10859 10861 10860 10861 10862 10863 10865 10865 10866 10866 10867 10868 10868 10870 10871 10872 10872 10872 10874 10874 10873 10874 10874 10874 10873 10873 10873 10872 10872 10871 10870 10869 10869 10869 10868 10867 10867 10866 10866 10865 10864 10862 10860
10686 10696 10717 10738 10745 10743 10743 10745 10748 10754 10759 10763 10765 10769 10774 10777 10779 10780 10781 10784 10786 10795 10802 10803 10809 10813 10812 10816 10824 10830 10837 10842 10841 10842 10843 10844 10846 10847 10847 10848 10850 10851 10853 10856 10856 10857 10858 10858 10860 10861 10861 10862 10862 10863 10864 10864 10865 10866 10867 10867 10868 10869 10869 10869 10870 10869 10869 10869 10869 10869 10867 10867 10866 10866 10865 10864 10864 10863 10862 10862 10862 10861 10860 10858 10856 10855
10677 10697 10727 10736 10731 10730 10733 10737 10741 10746 10752 10755 10758 10762 10768 10773 10774 10774 10776 10778 10781 10788 10794 10795 10801 10807 10807 10809 10817 10825 10832 10835 10835 10836 10838 10841 10843 10843 10843 10845 10846 10847 10849 10852 10853 10854 10855 10855 10856 10857 10856 10857 10858 10859 10860 10860 10861 10862 10862 10862 10864 10865 10864 10864 10865 10864 10864 10865 10865 10864 10863 10862 10861 10861 10860 10860 10859 10859 10858 10858 10857 10856 10854 10853 10851 10850
10678 10708 10727 10719 10714 10723 10730 10732 10735 10739 10746 10750 10753 10758 10764 10768 10769 10770 10770 10769 10772 10778 10783 10787 10793 10802 10804 10806 10813 10820 10825 10828 10829 10832 10834 10838 10840 10839 10841 10842 10842 10842 10844 10848 10849 10851 10852 10851 10852 10852 10852 10853 10854 10854 10855 10856 10858 10858 10858 10858 10859 10860 10859 10859 10859 10859 10859 10860 10860 10859 10858 10858 10857 10856 10856 10855 10855 10855 10855 10854 10853 10851 10849 10848 10846 10845
10680 10703 10704 10696 10707 10720 10720 10720 10724 10730 10738 10742 10745 10750 10756 10759 10760 10761 10760 10760 10762 10766 10774 10779 10786 10797 10801 10803 10809 10811 10817 10824 10826 10830 10831 10833 10834 10834 10838 10838 10835 10837 10840 10843 10846 10847 10849 10848 10847 10847 10847 10848 10849 10849 10850 10852 10854 10855 10855 10855 10855 10855 10854 10854 10854 10854 10855 10854 10854 10854 10853 10853 10853 10852 10851 10850 10851 10852 10850 10849 10848 10847 10845 10843 10842 10841
10674 10686 10684 10689 10702 10705 10704 10709 10715 10722 10728 10731 10737 10742 10744 10746 10748 10750 10751 10752 10754 10757 10765 10770 10778 10794 10797 10799 10805 10804 10811 10822 10823 10826 10828 10827 10827 10829 10832 10832 10831 10833 10836 10839 10841 10843 10845 10844 10843 10843 10843 10844 10844 10845 10847 10848 10849 10849 10849 10850 10851 10851 10850 10850 10850 10851 10850 10849 10849 10849 10848 10848 10848 10847 10846 10846 10847 10847 10845 10844 10843 10842 10841 10839 10838 10836
10661 10672 10677 10683 10689 10691 10695 10703 10709 10713 10718 10723 10731 10733 10731 10736 10739 10741 10743 10745 10745 10748 10755 10759 10769 10788 10793 10796 10802 10799 10805 10817 10819 10822 10824 10822 10822 10823 10825 10826 10827 10829 10831 10834 10837 10838 10840 10839 10839 10840 10839 10839 10840 10840 10843 10843 10843 10842 10843 10845 10846 10847 10846 10846 10846 10846 10845 10845 10845 10845 10844 10843 10842 10841 10841 10843 10842 10841 10839 10838 10838 10837 10836 10835 10833 10832
10651 10663 10669 10673 10678 10683 10689 10700 10706 10706 10709 10717 10724 10721 10720 10727 10728 10731 10734 10734 10735 10738 10744 10751 10761 10779 10791 10795 10798 10796 10799 10810 10816 10818 10818 10817 10816 10817 10819 10821 10823 10825 10826 10829 10832 10833 10834 10835 10835 10835 10835 10835 10834 10835 10837 10838 10838 10838 10839 10840 10841 10842 10842 10842 10842 10842 10841 10841 10840 10840 10839 10838 10838 10837 10837 10838 10837 10835 10834 10833 10833 10832 10831 10830 10828 10827
10646 10653 10662 10667 10671 10676 10685 10696 10696 10692 10697 10707 10711 10708 10710 10714 10715 10720 10723 10721 10723 10726 10735 10748 10753 10767 10789 10795 10790 10791 10797 10805 10812 10812 10810 10811 10812 10813 10815 10815 10817 10819 10821 10824 10825 10826 10828 10830 10830 10830 10831 10830 10829 10830 10832 10833 10833 10834 10834 10835 10836 10836 10837 10838 10838 10838 10836 10836 10836 10835 10834 10833 10833 10833 10833 10833 10831 10830 10830 10829 10828 10827 10826 10825 10823 10821
10629 10640 10651 10653 10656 10666 10676 10678 10675 10676 10683 10690 10693 10695 10698 10699 10703 10708 10709 10710 10711 10714 10730 10747 10748 10756 10782 10793 10785 10787 10798 10801 10803 10805 10805 10806 10807 10809 10809 10809 10810 10812 10815 10818 10819 10820 10821 10823 10824 10825 10825 10824 10824 10825 10827 10827 10828 10829 10829 10830 10831 10831 10832 10833 10833 10833 10833 10832 10832 10830 10829 10828 10828 10829 10828 10827 10826 10825 10825 10823 10823 10822 10821 10819 10817 10816
10613 10628 10634 10633 10643 10657 10661 10658 10661 10665 10667 10671 10678 10685 10688 10688 10694 10698 10698 10701 10696 10705 10732 10748 10746 10749 10771 10789 10787 10787 10796 10796 10795 10799 10801 10801 10801 10801 10802 10801 10803 10806 10809 10812 10813 10813 10812 10814 10817 10819 10819 10818 10819 10821 10821 10821 10822 10824 10825 10825 10825 10825 10827 10828 10828 10829 10828 10828 10827 10826 10825 10824 10824 10824 10823 10822 10821 10821 10820 10818 10818 10817 10815 10814 10812 10810
10600 10613 10617 10624 10637 10646 10648 10649 10653 10655 10657 10663 10670 10679 10682 10681 10687 10688 10690 10692 10686 10708 10742 10749 10744 10744 10761 10787 10791 10788 10792 10789 10789 10794 10794 10793 10791 10792 10794 10795 10797 10799 10803 10805 10806 10805 10804 10806 10809 10811 10813 10813 10814 10816 10815 10816 10817 10818 10819 10819 10819 10820 10821 10823 10823 10823 10822 10822 10822 10821 10821 10820 10819 10819 10818 10816 10815 10815 10815 10813 10812 10811 10809 10808 10806 10804
10591 10603 10611 10619 10626 10633 10638 10640 10642 10644 10649 10656 10662 10672 10677 10676 10680 10681 10685 10688 10689 10717 10743 10741 10737 10734 10750 10782 10788 10784 10787 10783 10783 10787 10785 10784 10782 10783 10786 10789 10792 10793 10795 10796 10796 10798 10799 10801 10802 10803 10805 10806 10808 10810 10810 10811 10812 10812 10813 10814 10814 10813 10815 10818 10818 10817 10817 10816 10816 10816 10816 10815 10813 10814 10812 10811 10810 10809 10809 10807 10806 10805 10803 10801 10799 10797
10584 10595 10601 10607 10614 10624 10630 10630 10634 10640 10647 10653 10659 10669 10673 10672 10675 10679 10686 10688 10693 10717 10730 10728 10725 10718 10738 10775 10781 10780 10783 10777 10776 10776 10774 10775 10774 10774 10777 10782 10786 10786 10787 10787 10787 10790 10793 10794 10796 10797 10798 10798 10800 10802 10803 10804 10805 10806 10807 10808 10807 10807 10809 10812 10812 10811 10811 10809 10810 10810 10810 10809 10808 10808 10807 10805 10804 10803 10803 10801 10799 10798 10795 10794 10792 10791
10572 10583 10592 10603 10614 10622 10625 10627 10634 10640 10643 10646 10651 10654 10655 10659 10666 10673 10679 10679 10686 10702 10706 10706 10704 10701 10733 10771 10772 10769 10772 10770 10769 10766 10763 10766 10766 10767 10770 10774 10778 10778 10778 10779 10779 10782 10785 10787 10790 10792 10792 10791 10791 10793 10796 10797 10798 10799 10800 10801 10801 10801 10802 10805 10805 10805 10804 10803 10804 10805 10803 10802 10802 10802 10801 10800 10798 10798 10797 10795 10793 10791 10789 10787 10785 10784
10559 10571 10586 10599 10606 10611 10614 10618 10622 10625 10626 10631 10635 10633 10637 10652 10659 10661 10663 10665 10672 10678 10681 10691 10692 10699 10735 10760 10757 10759 10763 10765 10766 10761 10759 10760 10759 10760 10763 10765 10766 10768 10770 10771 10773 10775 10776 10779 10783 10784 10784 10784 10785 10787 10788 10790 10791 10792 10793 10794 10795 10794 10795 10798 10799 10798 10798 10798 10798 10798 10796 10796 10796 10796 10795 10794 10792 10792 10791 10790 10787 10784 10782 10781 10779 10777
10549 10562 10577 10585 10591 10597 10601 10604 10605 10608 10612 10618 10621 10621 10634 10648 10646 10644 10652 10659 10660 10660 10671 10688 10692 10704 10730 10745 10750 10756 10758 10762 10764 10760 10757 10754 10750 10750 10752 10754 10754 10757 10761 10763 10766 10766 10767 10771 10774 10775 10776 10777 10778 10779 10781 10782 10784 10785 10786 10787 10787 10786 10788 10790 10791 10791 10791 10792 10791 10791 10790 10791 10791 10791 10789 10788 10786 10786 10785 10783 10780 10778 10777 10775 10773 10771
10540 10551 10561 10571 10581 10587 10589 10588 10588 10593 10599 10602 10608 10619 10630 10627 10621 10628 10641 10645 10643 10646 10663 10680 10688 10700 10715 10732 10748 10750 10750 10757 10756 10752 10752 10747 10743 10741 10741 10741 10742 10746 10750 10753 10757 10757 10758 10762 10765 10766 10767 10769 10770 10771 10773 10775 10777 10778 10778 10779 10779 10779 10780 10782 10783 10785 10784 10784 10784 10784 10784 10785 10785 10784 10783 10781 10780 10780 10779 10776 10773 10772 10770 10768 10767 10765
10525 10534 10542 10553 10563 10569 10571 10570 10570 10579 10586 10591 10603 10614 10612 10604 10607 10619 10628 10633 10635 10640 10655 10671 10681 10689 10699 10724 10744 10741 10740 10745 10741 10742 10745 10741 10737 10733 10731 10730 10728 10733 10739 10743 10747 10748 10749 10752 10755 10758 10759 10760 10761 10762 10764 10767 10768 10770 10770 10771 10772 10772 10772 10774 10776 10777 10777 10777 10778 10777 10778 10778 10777 10777 10776 10775 10774 10773 10772 10769 10767 10766 10764 10762 10761 10758
10511 10518 10526 10537 10545 10551 10555 10556 10560 10571 10579 10584 10593 10598 10594 10594 10603 10610 10617 10626 10628 10630 10643 10658 10667 10676 10694 10721 10735 10732 10730 10729 10728 10733 10737 10735 10732 10727 10725 10723 10718 10720 10725 10730 10735 10738 10741 10744 10746 10749 10750 10750 10753 10754 10755 10756 10758 10760 10761 10763 10764 10764 10765 10766 10767 10769 10769 10770 10771 10771 10771 10770 10770 10770 10769 10768 10767 10766 10764 10761 10760 10759 10757 10756 10754 10751
10495 10501 10512 10523 10530 10533 10538 10547 10560 10570 10572 10573 10578 10582 10585 10591 10598 10603 10608 10614 10616 10620 10631 10644 10655 10674 10699 10714 10718 10719 10719 10717 10719 10723 10726 10727 10726 10721 10719 10717 10712 10709 10711 10715 10721 10726 10731 10735 10736 10738 10739 10741 10743 10743 10745 10746 10748 10751 10753 10755 10756 10756 10757 10758 10760 10762 10763 10764 10765 10764 10763 10762 10762 10762 10762 10761 10760 10758 10756 10754 10753 10752 10750 10749 10746 10744
10484 10493 10502 10511 10516 10520 10527 10541 10554 10556 10553 10556 10561 10567 10575 10581 10584 10588 10593 10600 10606 10609 10618 10630 10642 10668 10694 10697 10698 10705 10707 10706 10708 10711 10714 10716 10714 10713 10713 10711 10708 10703 10700 10700 10706 10712 10718 10723 10726 10727 10729 10730 10732 10733 10735 10737 10739 10742 10744 10745 10747 10748 10749 10751 10753 10755 10756 10757 10758 10757 10755 10755 10755 10754 10754 10753 10752 10750 10748 10746 10745 10744 10743 10741 10738 10737
10475 10480 10487 10492 10499 10507 10514 10526 10535 10536 10538 10543 10547 10553 10561 10565 10568 10574 10580 10590 10596 10595 10604 10611 10618 10651 10682 10680 10681 10691 10691 10694 10699 10700 10702 10703 10702 10705 10706 10704 10703 10700 10695 10692 10694 10700 10705 10709 10714 10718 10720 10721 10722 10723 10726 10729 10731 10732 10734 10735 10738 10740 10741 10744 10747 10748 10749 10750 10750 10749 10748 10748 10747 10747 10747 10746 10744 10742 10740 10738 10737 10736 10736 10733 10731 10730
10457 10459 10467 10475 10483 10491 10499 10508 10515 10520 10524 10527 10531 10542 10550 10553 10561 10570 10574 10580 10583 10582 10591 10593 10594 10636 10675 10669 10668 10678 10678 10683 10690 10690 10692 10692 10692 10697 10698 10698 10696 10694 10693 10689 10687 10691 10693 10696 10701 10705 10708 10710 10712 10714 10717 10719 10721 10722 10724 10726 10728 10730 10733 10736 10739 10741 10742 10742 10742 10742 10742 10741 10741 10740 10739 10737 10735 10734 10732 10730 10730 10729 10728 10726 10724 10723
10446 10449 10458 10464 10469 10475 10483 10490 10496 10504 10510 10516 10525 10536 10542 10546 10553 10559 10561 10565 10565 10567 10580 10580 10581 10622 10659 10654 10654 10665 10666 10672 10677 10678 10682 10684 10683 10686 10688 10689 10689 10686 10686 10684 10683 10684 10684 10686 10688 10690 10693 10696 10699 10703 10706 10709 10712 10714 10715 10716 10718 10721 10724 10727 10730 10732 10734 10735 10735 10735 10735 10734 10734 10733 10731 10729 10728 10726 10724 10723 10722 10721 10720 10719 10717 10715
10430 10434 10443 10448 10452 10460 10471 10480 10491 10501 10507 10512 10520 10526 10531 10534 10538 10542 10546 10547 10547 10553 10567 10569 10573 10604 10632 10636 10644 10656 10657 10660 10663 10665 10671 10674 10674 10675 10677 10679 10680 10678 10675 10676 10678 10677 10675 10676 10677 10679 10682 10683 10685 10690 10693 10698 10702 10705 10707 10709 10711 10713 10715 10718 10721 10723 10725 10726 10726 10727 10726 10725 10725 10725 10724 10722 10720 10719 10717 10716 10715 10713 10712 10711 10709 10707
10414 10419 10429 10436 10441 10453 10466 10477 10485 10490 10489 10493 10501 10508 10514 10518 10523 10526 10528 10531 10539 10546 10551 10557 10566 10585 10605 10620 10634 10644 10646 10646 10649 10652 10658 10663 10666 10667 10669 10670 10670 10668 10665 10666 10670 10671 10669 10668 10668 10669 10671 10672 10674 10677 10680 10685 10689 10693 10697 10700 10704 10707 10708 10710 10713 10715 10716 10717 10717 10716 10715 10715 10716 10716 10715 10714 10712 10711 10709 10708 10706 10705 10704 10703 10702 10700
10405 10411 10424 10432 10437 10450 10463 10468 10468 10466 10468 10476 10484 10492 10497 10501 10505 10505 10506 10518 10532 10533 10534 10547 10556 10563 10584 10608 10618 10622 10630 10635 10636 10640 10646 10652 10657 10659 10661 10661 10659 10658 10657 10655 10658 10662 10663 10661 10659 10658 10657 10660 10664 10668 10671 10674 10677 10680 10684 10688 10693 10698 10701 10704 10706 10708 10708 10708 10708 10706 10705 10705 10706 10707 10706 10704 10703 10702 10700 10699 10698 10697 10696 10695 10694 10692
10397 10405 10420 10427 10432 10444 10454 10455 10451 10449 10455 10464 10471 10479 10486 10489 10490 10490 10495 10510 10520 10518 10523 10538 10540 10543 10570 10596 10597 10597 10612 10624 10628 10630 10634 10640 10644 10646 10647 10649 10650 10648 10645 10643 10645 10650 10652 10650 10647 10647 10648 10651 10654 10658 10662 10664 10666 10669 10673 10678 10683 10687 10690 10693 10697 10699 10700 10700 10700 10698 10697 10698 10698 10697 10697 10696 10695 10693 10692 10691 10690 10689 10689 10687 10686 10684
10388 10398 10411 10415 10418 10430 10439 10441 10438 10436 10441 10449 10457 10466 10473 10476 10478 10480 10487 10500 10506 10506 10514 10527 10531 10539 10564 10581 10579 10580 10594 10609 10618 10621 10622 10624 10627 10628 10630 10635 10640 10637 10632 10630 10631 10636 10641 10639 10635 10637 10640 10643 10646 10648 10651 10654 10657 10660 10665 10670 10675 10677 10679 10682 10685 10687 10688 10690 10689 10688 10689 10689 10688 10688 10688 10687 10686 10685 10684 10683 10682 10682 10681 10679 10678 10676
10377 10387 10399 10403 10403 10414 10426 10429 10427 10428 10431 10435 10443 10452 10457 10460 10464 10467 10473 10485 10493 10497 10508 10521 10527 10537 10555 10563 10562 10566 10576 10587 10599 10607 10610 10609 10609 10612 10617 10623 10627 10625 10620 10618 10618 10623 10630 10630 10626 10626 10630 10634 10637 10639 10642 10646 10648 10651 10656 10661 10664 10667 10670 10672 10674 10676 10677 10678 10678 10678 10678 10678 10677 10678 10678 10678 10677 10676 10675 10675 10674 10673 10672 10671 10670 10668
10363 10373 10386 10390 10387 10399 10417 10420 10417 10421 10422 10420 10425 10434 10439 10445 10451 10459 10467 10477 10485 10493 10503 10510 10513 10529 10547 10545 10537 10546 10560 10568 10578 10588 10594 10596 10596 10598 10605 10612 10614 10614 10611 10609 10608 10611 10617 10620 10618 10617 10620 10624 10626 10628 10633 10636 10637 10641 10647 10650 10653 10657 10660 10663 10665 10666 10667 10668 10667 10667 10668 10667 10668 10669 10668 10668 10667 10666 10666 10665 10665 10664 10662 10661 10661 10659
10351 10359 10371 10374 10372 10387 10407 10408 10405 10408 10401 10395 10407 10422 10431 10439 10446 10454 10463 10472 10480 10486 10490 10494 10502 10519 10528 10516 10512 10533 10551 10555 10559 10565 10569 10576 10583 10586 10592 10600 10603 10602 10600 10597 10595 10596 10601 10608 10611 10609 10608 10610 10613 10617 10620 10622 10626 10632 10637 10639 10643 10648 10651 10654 10656 10657 10658 10658 10658 10658 10658 10658 10659 10659 10658 10657 10657 10656 10656 10656 10655 10654 10653 10652 10652 10650
10344 10349 10358 10361 10360 10374 10393 10393 10387 10382 10372 10378 10406 10426 10432 10437 10442 10446 10453 10462 10468 10468 10468 10475 10486 10497 10501 10499 10507 10527 10537 10534 10537 10542 10546 10554 10566 10575 10581 10587 10588 10585 10582 10581 10581 10584 10588 10594 10598 10597 10596 10597 10599 10603 10607 10612 10619 10625 10627 10629 10635 10641 10644 10646 10648 10649 10649 10648 10648 10649 10649 10649 10650 10649 10648 10648 10646 10646 10646 10646 10646 10645 10644 10644 10643 10641
10335 10339 10346 10349 10349 10360 10377 10377 10364 10355 10359 10382 10412 10426 10426 10427 10429 10428 10433 10443 10448 10448 10452 10461 10472 10483 10491 10497 10504 10511 10516 10517 10518 10524 10533 10541 10549 10558 10565 10570 10570 10567 10565 10566 10567 10571 10572 10573 10577 10583 10587 10588 10588 10590 10596 10604 10610 10614 10616 10622 10628 10633 10636 10637 10639 10640 10639 10638 10639 10639 10639 10639 10639 10639 10638 10637 10637 10637 10637 10637 10637 10636 10635 10635 10634 10632
10324 10327 10331 10335 10337 10344 10357 10358 10348 10347 10365 10387 10404 10413 10414 10412 10412 10412 10417 10430 10441 10445 10449 10455 10463 10471 10475 10481 10488 10494 10499 10501 10500 10509 10523 10529 10531 10536 10545 10551 10552 10549 10548 10548 10548 10550 10553 10555 10562 10572 10578 10579 10579 10581 10586 10592 10596 10600 10606 10613 10620 10624 10625 10625 10628 10629 10628 10627 10628 10628 10627 10628 10628 10628 10627 10627 10627 10627 10627 10627 10627 10627 10626 10625 10624 10622
10312 10314 10318 10322 10324 10330 10339 10343 10340 10344 10360 10377 10389 10398 10401 10400 10402 10405 10407 10420 10434 10437 10436 10440 10448 10454 10458 10467 10478 10484 10481 10480 10486 10502 10514 10514 10515 10520 10524 10526 10526 10525 10528 10531 10532 10537 10542 10547 10553 10560 10565 10569 10573 10575 10576 10576 10578 10585 10595 10603 10608 10611 10612 10614 10617 10617 10616 10615 10615 10615 10616 10616 10615 10615 10615 10616 10617 10617 10617 10618 10617 10617 10616 10616 10615 10612
10301 10304 10307 10309 10310 10316 10323 10327 10328 10331 10345 10366 10381 10387 10389 10390 10394 10395 10391 10401 10420 10427 10425 10428 10436 10442 10449 10457 10464 10465 10461 10461 10476 10496 10502 10497 10497 10499 10495 10495 10499 10503 10511 10520 10527 10530 10532 10536 10541 10546 10552 10558 10563 10565 10563 10561 10563 10571 10581 10589 10594 10597 10601 10604 10605 10604 10603 10603 10602 10603 10605 10605 10603 10602 10603 10605 10607 10607 10607 10607 10607 10607 10607 10606 10604 10602
10290 10293 10296 10296 10297 10304 10311 10314 10318 10322 10338 10361 10373 10375 10377 10379 10382 10382 10374 10382 10411 10423 10416 10416 10424 10429 10437 10443 10443 10442 10443 10448 10468 10487 10486 10476 10473 10471 10470 10477 10484 10488 10497 10509 10516 10518 10518 10520 10526 10533 10540 10546 10551 10553 10551 10550 10555 10562 10567 10572 10576 10583 10590 10593 10591 10588 10589 10590 10589 10590 10592 10592 10590 10590 10591 10593 10595 10595 10596 10596 10596 10596 10595 10594 10592 10590
10281 10283 10286 10286 10289 10297 10301 10303 10310 10319 10333 10352 10359 10361 10365 10369 10371 10369 10361 10371 10404 10417 10406 10404 10412 10416 10421 10424 10423 10427 10435 10444 10462 10472 10462 10453 10454 10455 10458 10468 10474 10477 10486 10493 10497 10499 10502 10506 10511 10517 10525 10531 10536 10538 10537 10538 10546 10554 10557 10558 10560 10568 10575 10576 10573 10572 10574 10577 10577 10577 10579 10579 10578 10578 10579 10580 10582 10583 10584 10585 10585 10584 10583 10581 10580 10579
10270 10273 10276 10279 10283 10287 10289 10293 10302 10313 10327 10340 10346 10348 10353 10356 10358 10357 10355 10368 10391 10399 10395 10395 10396 10397 10403 10406 10409 10421 10432 10437 10446 10449 10440 10437 10444 10445 10448 10455 10460 10465 10473 10477 10479 10480 10483 10489 10495 10502 10511 10516 10519 10521 10522 10525 10534 10543 10547 10547 10550 10556 10557 10554 10554 10558 10560 10562 10564 10564 10565 10565 10565 10565 10566 10567 10570 10572 10572 10572 10572 10572 10570 10569 10568 10567
10262 10266 10269 10272 10276 10279 10282 10285 10290 10303 10320 10331 10333 10335 10337 10342 10348 10351 10352 10360 10371 10377 10384 10387 10380 10380 10388 10393 10398 10410 10418 10419 10425 10429 10426 10426 10431 10433 10435 10440 10446 10451 10456 10461 10463 10463 10464 10470 10478 10484 10493 10499 10501 10504 10508 10512 10521 10530 10533 10536 10542 10543 10539 10536 10541 10545 10546 10548 10549 10549 10550 10550 10550 10552 10553 10554 10558 10561 10561 10560 10559 10558 10558 10557 10557 10556
10252 10254 10257 10263 10268 10270 10272 10274 10281 10301 10320 10321 10317 10318 10321 10330 10342 10344 10342 10347 10355 10362 10369 10373 10369 10368 10375 10380 10384 10391 10398 10402 10407 10411 10410 10411 10417 10420 10422 10427 10433 10439 10442 10445 10448 10448 10449 10455 10461 10466 10472 10478 10481 10485 10491 10497 10507 10516 10519 10525 10530 10526 10522 10526 10531 10533 10534 10536 10535 10534 10534 10535 10536 10538 10540 10541 10545 10548 10549 10548 10546 10545 10545 10545 10544 10544
10240 10243 10249 10257 10260 10258 10260 10267 10280 10297 10306 10302 10299 10305 10312 10321 10332 10334 10331 10337 10344 10346 10350 10357 10358 10357 10359 10364 10367 10370 10377 10384 10389 10392 10393 10396 10403 10408 10411 10416 10422 10427 10430 10432 10434 10434 10434 10440 10447 10451 10455 10459 10461 10464 10469 10478 10490 10501 10507 10513 10513 10507 10508 10516 10520 10521 10522 10523 10522 10521 10521 10521 10523 10525 10526 10528 10531 10535 10537 10536 10534 10533 10533 10532 10532 10531
10232 10235 10238 10243 10245 10243 10248 10261 10273 10282 10288 10290 10294 10300 10305 10310 10317 10320 10323 10327 10329 10327 10330 10337 10341 10341 10341 10344 10347 10352 10359 10366 10370 10374 10378 10384 10392 10398 10402 10406 10410 10413 10417 10419 10421 10421 10421 10425 10432 10437 10440 10443 10445 10446 10451 10457 10467 10480 10490 10495 10494 10492 10497 10504 10507 10508 10509 10509 10509 10509 10508 10509 10512 10513 10513 10514 10518 10522 10524 10523 10522 10521 10520 10519 10519 10518
10221 10222 10224 10227 10230 10232 10241 10255 10267 10274 10281 10285 10286 10287 10289 10293 10298 10302 10308 10312 10313 10312 10313 10318 10324 10327 10326 10327 10332 10337 10342 10347 10353 10360 10366 10373 10382 10386 10389 10394 10398 10399 10401 10404 10406 10407 10408 10411 10418 10424 10427 10430 10431 10432 10436 10440 10447 10458 10468 10472 10473 10477 10484 10489 10492 10494 10495 10495 10495 10495 10495 10498 10500 10501 10501 10502 10505 10509 10511 10509 10508 10509 10508 10506 10506 10505
10207 10208 10212 10217 10219 10224 10238 10254 10262 10267 10269 10267 10267 10271 10275 10278 10282 10285 10289 10295 10298 10297 10297 10300 10307 10311 10311 10312 10316 10321 10327 10333 10341 10349 10356 10361 10367 10372 10375 10380 10383 10385 10386 10389 10391 10392 10393 10398 10405 10410 10414 10418 10419 10419 10421 10426 10432 10441 10448 10451 10453 10459 10466 10471 10475 10478 10479 10479 10480 10481 10483 10485 10487 10487 10488 10490 10491 10495 10496 10495 10495 10495 10495 10494 10493 10493
10193 10195 10202 10209 10213 10219 10234 10247 10251 10253 10254 10253 10254 10260 10265 10267 10266 10266 10268 10273 10278 10281 10283 10285 10288 10291 10294 10298 10302 10307 10314 10321 10328 10336 10342 10346 10351 10357 10361 10363 10367 10370 10372 10375 10377 10377 10379 10384 10391 10396 10400 10405 10408 10406 10407 10412 10419 10425 10431 10436 10437 10441 10448 10453 10456 10459 10461 10462 10464 10467 10469 10471 10472 10473 10474 10475 10477 10479 10480 10481 10481 10482 10483 10482 10481 10481
10181 10185 10194 10203 10207 10212 10225 10239 10241 10239 10240 10243 10243 10244 10247 10247 10247 10247 10248 10253 10260 10266 10270 10271 10273 10276 10281 10287 10291 10295 10300 10307 10314 10320 10325 10330 10336 10342 10346 10348 10351 10355 10358 10361 10362 10364 10366 10371 10376 10380 10385 10390 10393 10392 10393 10398 10405 10410 10416 10420 10422 10426 10433 10437 10438 10441 10444 10446 10450 10454 10454 10454 10456 10458 10460 10461 10462 10464 10465 10466 10468 10469 10470 10470 10469 10469
10171 10179 10185 10189 10193 10203 10218 10228 10225 10218 10222 10230 10227 10222 10224 10229 10232 10236 10239 10240 10244 10250 10255 10258 10261 10265 10269 10274 10278 10280 10285 10293 10300 10303 10308 10315 10321 10325 10330 10333 10336 10340 10344 10346 10348 10351 10354 10358 10361 10365 10370 10376 10379 10379 10379 10384 10391 10396 10400 10405 10408 10413 10419 10421 10422 10426 10431 10433 10435 10439 10441 10441 10441 10443 10446 10448 10449 10449 10451 10453 10454 10456 10457 10456 10456 10456
10160 10167 10170 10171 10179 10195 10206 10207 10200 10197 10207 10216 10212 10207 10211 10217 10219 10223 10227 10227 10229 10234 10239 10243 10248 10251 10254 10259 10263 10266 10271 10278 10284 10287 10291 10299 10305 10309 10314 10317 10319 10324 10329 10332 10334 10338 10341 10343 10346 10350 10356 10362 10365 10366 10368 10373 10377 10381 10385 10390 10393 10397 10403 10408 10409 10412 10418 10422 10422 10422 10424 10427 10428 10430 10433 10436 10437 10437 10439 10441 10442 10443 10444 10443 10443 10444